| time (UTC) | temp F | wind direction | speed knots | gust knots | rain 1hr in | rain 24hr in | rain mn in | humidity % | barometer mb |
| 20260508065406 | 53 | 61 | 2.6 | 4.3 | 0.00 | 0.00 | 0.00 | 81 | 1017.3 |
| 20260508064902 | 53 | 66 | 2.6 | 4.3 | 0.00 | 0.00 | 0.00 | 81 | 1017.3 |
| 20260508064403 | 53 | 66 | 1.7 | 4.3 | 0.00 | 0.00 | 0.00 | 81 | 1017.2 |
| 20260508063902 | 53 | 44 | 2.6 | 4.3 | 0.00 | 0.00 | 0.00 | 81 | 1017.2 |
| 20260508063401 | 53 | 52 | 1.7 | 4.3 | 0.00 | 0.00 | 0.00 | 82 | 1017.2 |
| 20260508062903 | 53 | 82 | 1.7 | 3.5 | 0.00 | 0.00 | 0.00 | 82 | 1017.2 |
| 20260508062405 | 52 | 78 | 1.7 | 4.3 | 0.00 | 0.00 | 0.00 | 82 | 1017.2 |
| 20260508061902 | 52 | 97 | 1.7 | 4.3 | 0.00 | 0.00 | 0.00 | 82 | 1017.1 |
| 20260508061402 | 52 | 86 | 3.5 | 4.3 | 0.00 | 0.00 | 0.00 | 82 | 1017.1 |
| 20260508060902 | 52 | 97 | 0.0 | 4.3 | 0.00 | 0.00 | 0.00 | 82 | 1017.0 |
| 20260508060654 | 52 | 97 | 1.7 | 4.3 | 0.00 | 0.00 | 0.00 | 82 | 1017.1 |
| 20260508055903 | 52 | 97 | 1.7 | 4.3 | 0.00 | 0.00 | 0.00 | 82 | 1017.0 |
| 20260508055415 | 52 | 100 | 1.7 | 4.3 | 0.00 | 0.00 | 0.00 | 82 | 1016.9 |
| 20260508054902 | 51 | 59 | 2.6 | 4.3 | 0.00 | 0.00 | 0.00 | 82 | 1017.0 |
| 20260508054417 | 51 | 93 | 1.7 | 4.3 | 0.00 | 0.00 | 0.00 | 82 | 1017.0 |
| 20260508053905 | 51 | 86 | 1.7 | 3.5 | 0.00 | 0.00 | 0.00 | 83 | 1017.0 |
| 20260508053406 | 51 | 75 | 2.6 | 3.5 | 0.00 | 0.00 | 0.00 | 83 | 1017.0 |
| 20260508052905 | 51 | 76 | 1.7 | 2.6 | 0.00 | 0.00 | 0.00 | 83 | 1016.9 |
| 20260508052403 | 51 | 96 | 0.9 | 2.6 | 0.00 | 0.00 | 0.00 | 83 | 1016.9 |
| 20260508051904 | 51 | 92 | 0.0 | 2.6 | 0.00 | 0.00 | 0.00 | 83 | 1016.9 |
| 20260508051403 | 51 | 90 | 0.0 | 4.3 | 0.00 | 0.00 | 0.00 | 83 | 1016.8 |
| 20260508050903 | 51 | 89 | 0.9 | 4.3 | 0.00 | 0.00 | 0.00 | 83 | 1016.8 |
| 20260508050403 | 51 | 71 | 1.7 | 3.5 | 0.00 | 0.00 | 0.00 | 83 | 1016.8 |
| 20260508045903 | 51 | 86 | 0.9 | 2.6 | 0.00 | 0.00 | 0.00 | 83 | 1016.8 |
| 20260508045404 | 51 | 86 | 0.0 | 3.5 | 0.00 | 0.00 | 0.00 | 83 | 1016.9 |
| 20260508045153 | 51 | 87 | 2.6 | 3.5 | 0.00 | 0.00 | 0.00 | 83 | 1016.7 |
| 20260508044402 | 51 | 83 | 2.6 | 3.5 | 0.00 | 0.00 | 0.00 | 83 | 1016.7 |
| 20260508043902 | 50 | 69 | 0.0 | 0.0 | 0.00 | 0.00 | 0.00 | 83 | 1016.7 |
| 20260508043647 | 50 | 69 | 0.0 | 2.6 | 0.00 | 0.00 | 0.00 | 83 | 1016.6 |
| 20260508042902 | 50 | 69 | 0.0 | 2.6 | 0.00 | 0.00 | 0.00 | 83 | 1016.7 |
| 20260508042402 | 50 | 89 | 0.9 | 2.6 | 0.00 | 0.00 | 0.00 | 83 | 1016.7 |
| 20260508041912 | 50 | 94 | 0.9 | 3.5 | 0.00 | 0.00 | 0.00 | 84 | 1016.6 |
| 20260508041402 | 50 | 96 | 1.7 | 3.5 | 0.00 | 0.00 | 0.00 | 84 | 1016.6 |
| 20260508040901 | 50 | 92 | 1.7 | 3.5 | 0.00 | 0.00 | 0.00 | 84 | 1016.6 |
| 20260508040401 | 50 | 71 | 0.0 | 0.0 | 0.00 | 0.00 | 0.00 | 84 | 1016.6 |
| 20260508040146 | 50 | 71 | 0.0 | 0.0 | 0.00 | 0.00 | 0.00 | 84 | 1016.6 |
| 20260508035401 | 50 | 72 | 0.0 | 2.6 | 0.00 | 0.00 | 0.00 | 84 | 1016.6 |
| 20260508035138 | 50 | 71 | 0.0 | 2.6 | 0.00 | 0.00 | 0.00 | 84 | 1016.6 |
| 20260508034402 | 50 | 69 | 0.0 | 1.7 | 0.00 | 0.00 | 0.00 | 85 | 1016.5 |
| 20260508033901 | 50 | 63 | 0.0 | 0.9 | 0.00 | 0.00 | 0.00 | 85 | 1016.5 |
| 20260508033413 | 50 | 65 | 0.0 | 0.0 | 0.00 | 0.00 | 0.00 | 85 | 1016.5 |
| 20260508032904 | 50 | 65 | 0.0 | 0.0 | 0.00 | 0.00 | 0.00 | 86 | 1016.6 |
| 20260508032402 | 50 | 65 | 0.0 | 0.0 | 0.00 | 0.00 | 0.00 | 86 | 1016.5 |
| 20260508032154 | 50 | 65 | 0.0 | 0.0 | 0.00 | 0.00 | 0.00 | 85 | 1016.5 |
| 20260508031402 | 50 | 65 | 0.0 | 0.0 | 0.00 | 0.00 | 0.00 | 85 | 1016.5 |
| 20260508030902 | 50 | 65 | 0.0 | 0.0 | 0.00 | 0.00 | 0.00 | 86 | 1016.4 |
| 20260508030647 | 50 | 61 | 0.0 | 0.0 | 0.00 | 0.00 | 0.00 | 86 | 1016.4 |
| 20260508025904 | 50 | 61 | 0.0 | 0.0 | 0.00 | 0.00 | 0.00 | 85 | 1016.4 |
| 20260508025401 | 50 | 61 | 0.0 | 0.0 | 0.00 | 0.00 | 0.00 | 85 | 1016.5 |
| 20260508024902 | 50 | 61 | 0.0 | 0.0 | 0.00 | 0.00 | 0.00 | 85 | 1016.5 |
| 20260508024403 | 50 | 61 | 0.0 | 0.0 | 0.00 | 0.00 | 0.00 | 85 | 1016.5 |
| 20260508023901 | 50 | 61 | 0.0 | 0.0 | 0.00 | 0.00 | 0.00 | 85 | 1016.5 |
| 20260508023402 | 50 | 61 | 0.0 | 0.0 | 0.00 | 0.00 | 0.00 | 85 | 1016.4 |
| 20260508022903 | 50 | 61 | 0.0 | 0.0 | 0.00 | 0.00 | 0.00 | 85 | 1016.6 |
| 20260508022403 | 50 | 61 | 0.0 | 0.0 | 0.00 | 0.00 | 0.00 | 85 | 1016.5 |
| 20260508021902 | 50 | 61 | 0.0 | 0.0 | 0.00 | 0.00 | 0.00 | 85 | 1016.6 |
| 20260508021402 | 50 | 61 | 0.0 | 0.0 | 0.00 | 0.00 | 0.00 | 84 | 1016.4 |
| 20260508020903 | 50 | 61 | 0.0 | 0.0 | 0.00 | 0.00 | 0.00 | 83 | 1016.5 |
| 20260508020402 | 50 | 61 | 0.0 | 0.0 | 0.00 | 0.00 | 0.00 | 83 | 1016.4 |
| 20260508015901 | 51 | 61 | 0.0 | 0.0 | 0.00 | 0.00 | 0.00 | 83 | 1016.4 |
| 20260508015403 | 51 | 61 | 0.0 | 0.0 | 0.00 | 0.00 | 0.00 | 83 | 1016.4 |
| 20260508014902 | 51 | 61 | 0.0 | 0.0 | 0.00 | 0.00 | 0.00 | 83 | 1016.4 |
| 20260508014403 | 51 | 61 | 0.0 | 0.0 | 0.00 | 0.00 | 0.00 | 83 | 1016.5 |
| 20260508014222 | 51 | 61 | 0.0 | 0.0 | 0.00 | 0.00 | 0.00 | 84 | 1016.5 |
| 20260508013402 | 51 | 59 | 0.0 | 0.0 | 0.00 | 0.00 | 0.00 | 84 | 1016.5 |
| 20260508012904 | 51 | 61 | 0.0 | 0.0 | 0.00 | 0.00 | 0.00 | 82 | 1016.5 |
| 20260508012438 | 51 | 61 | 0.0 | 0.0 | 0.00 | 0.00 | 0.00 | 82 | 1016.6 |
| 20260508012426 | 51 | 61 | 0.0 | 0.0 | 0.00 | 0.00 | 0.00 | 81 | 1016.5 |
| 20260508011644 | 51 | 61 | 0.0 | 0.0 | 0.00 | 0.00 | 0.00 | 82 | 1016.5 |
| 20260508010901 | 52 | 61 | 0.0 | 0.0 | 0.00 | 0.00 | 0.00 | 82 | 1016.5 |
| 20260508010403 | 52 | 61 | 0.0 | 0.0 | 0.00 | 0.00 | 0.00 | 83 | 1016.5 |
| 20260508010220 | 52 | 61 | 0.0 | 0.0 | 0.00 | 0.00 | 0.00 | 83 | 1016.4 |
| 20260508005403 | 52 | 61 | 0.0 | 0.9 | 0.00 | 0.00 | 0.00 | 82 | 1016.5 |
| 20260508004902 | 52 | 59 | 0.0 | 1.7 | 0.00 | 0.00 | 0.00 | 82 | 1016.5 |
| 20260508004402 | 52 | 61 | 0.0 | 2.6 | 0.00 | 0.00 | 0.00 | 82 | 1016.6 |
| 20260508003902 | 52 | 61 | 1.7 | 3.5 | 0.00 | 0.00 | 0.00 | 84 | 1016.6 |
| 20260508003404 | 52 | 62 | 1.7 | 3.5 | 0.00 | 0.00 | 0.00 | 86 | 1016.6 |
| 20260508002902 | 52 | 62 | 0.0 | 0.0 | 0.00 | 0.00 | 0.00 | 86 | 1016.8 |
| 20260508002402 | 52 | 62 | 0.0 | 0.0 | 0.00 | 0.00 | 0.00 | 86 | 1016.7 |
| 20260508001902 | 52 | 62 | 0.0 | 0.0 | 0.00 | 0.00 | 0.00 | 85 | 1016.6 |
| 20260508001402 | 52 | 62 | 0.0 | 0.0 | 0.00 | 0.00 | 0.00 | 85 | 1016.7 |
| 20260508000901 | 52 | 62 | 0.0 | 0.0 | 0.00 | 0.00 | 0.00 | 85 | 1016.7 |
| 20260508000402 | 52 | 62 | 0.0 | 0.0 | 0.00 | 0.00 | 0.00 | 85 | 1016.7 |
| 20260507235903 | 52 | 62 | 0.0 | 0.0 | 0.00 | 0.00 | 0.00 | 85 | 1016.7 |
| 20260507235416 | 52 | 62 | 0.0 | 0.0 | 0.00 | 0.00 | 0.00 | 85 | 1016.7 |
| 20260507234904 | 52 | 62 | 0.0 | 0.0 | 0.00 | 0.00 | 0.00 | 85 | 1016.7 |
| 20260507234701 | 52 | 62 | 0.0 | 0.0 | 0.00 | 0.00 | 0.00 | 84 | 1016.8 |
| 20260507233902 | 52 | 62 | 0.0 | 0.0 | 0.00 | 0.00 | 0.00 | 84 | 1016.8 |
| 20260507233401 | 52 | 62 | 0.0 | 0.0 | 0.00 | 0.00 | 0.00 | 84 | 1016.9 |
| 20260507232903 | 52 | 62 | 0.0 | 0.0 | 0.00 | 0.00 | 0.00 | 84 | 1016.9 |
| 20260507232402 | 52 | 62 | 0.0 | 0.0 | 0.00 | 0.00 | 0.00 | 84 | 1016.8 |
| 20260507231902 | 52 | 62 | 0.0 | 0.0 | 0.00 | 0.00 | 0.00 | 84 | 1016.9 |
| 20260507231402 | 52 | 62 | 0.0 | 0.0 | 0.00 | 0.00 | 0.00 | 84 | 1017.0 |
| 20260507230913 | 52 | 62 | 0.0 | 0.0 | 0.00 | 0.00 | 0.00 | 83 | 1016.9 |
| 20260507230402 | 52 | 62 | 0.0 | 0.0 | 0.00 | 0.00 | 0.00 | 81 | 1016.9 |
| 20260507225903 | 52 | 62 | 0.0 | 0.0 | 0.00 | 0.00 | 0.00 | 81 | 1017.0 |
| 20260507225403 | 52 | 62 | 0.0 | 0.0 | 0.00 | 0.00 | 0.00 | 81 | 1017.0 |
| 20260507224903 | 52 | 62 | 0.0 | 0.0 | 0.00 | 0.00 | 0.00 | 82 | 1016.9 |
| 20260507224402 | 52 | 62 | 0.0 | 0.0 | 0.00 | 0.00 | 0.00 | 82 | 1017.0 |
| 20260507224148 | 52 | 62 | 0.0 | 0.0 | 0.00 | 0.00 | 0.00 | 81 | 1016.9 |
| 20260507223406 | 52 | 62 | 0.0 | 0.0 | 0.00 | 0.00 | 0.00 | 80 | 1017.0 |
| 20260507222903 | 53 | 62 | 0.0 | 0.0 | 0.00 | 0.00 | 0.00 | 80 | 1017.1 |
| 20260507222404 | 53 | 62 | 0.0 | 0.0 | 0.00 | 0.00 | 0.00 | 80 | 1017.0 |
| 20260507221901 | 53 | 62 | 0.0 | 0.0 | 0.00 | 0.00 | 0.00 | 80 | 1016.9 |
| 20260507221422 | 53 | 62 | 0.0 | 0.0 | 0.00 | 0.00 | 0.00 | 80 | 1017.0 |
| 20260507220902 | 53 | 62 | 0.0 | 0.0 | 0.00 | 0.00 | 0.00 | 80 | 1017.0 |
| 20260507220719 | 53 | 62 | 0.0 | 0.0 | 0.00 | 0.00 | 0.00 | 80 | 1016.9 |
| 20260507215902 | 53 | 62 | 0.0 | 0.0 | 0.00 | 0.00 | 0.00 | 80 | 1016.9 |
| 20260507215402 | 53 | 62 | 0.0 | 0.0 | 0.00 | 0.00 | 0.00 | 78 | 1016.9 |
| 20260507214903 | 53 | 62 | 0.0 | 0.0 | 0.00 | 0.00 | 0.00 | 78 | 1016.9 |
| 20260507214403 | 53 | 62 | 0.0 | 0.0 | 0.00 | 0.00 | 0.00 | 78 | 1016.9 |
| 20260507213901 | 53 | 62 | 0.0 | 0.0 | 0.00 | 0.00 | 0.00 | 78 | 1016.9 |
| 20260507213401 | 53 | 62 | 0.0 | 0.0 | 0.00 | 0.00 | 0.00 | 78 | 1016.9 |
| 20260507212905 | 53 | 62 | 0.0 | 0.0 | 0.00 | 0.00 | 0.00 | 77 | 1016.8 |
| 20260507212402 | 53 | 62 | 0.0 | 0.0 | 0.00 | 0.00 | 0.00 | 76 | 1016.8 |
| 20260507212205 | 53 | 62 | 0.0 | 0.0 | 0.00 | 0.00 | 0.00 | 76 | 1016.9 |
| 20260507211402 | 53 | 62 | 0.0 | 0.0 | 0.00 | 0.00 | 0.00 | 76 | 1016.9 |
| 20260507210902 | 53 | 62 | 0.0 | 0.0 | 0.00 | 0.00 | 0.00 | 76 | 1016.8 |
| 20260507210401 | 54 | 62 | 0.0 | 0.0 | 0.00 | 0.00 | 0.00 | 76 | 1016.8 |
| 20260507205902 | 54 | 62 | 0.0 | 0.0 | 0.00 | 0.00 | 0.00 | 76 | 1016.8 |
| 20260507205701 | 54 | 62 | 0.0 | 0.0 | 0.00 | 0.00 | 0.00 | 75 | 1016.7 |
| 20260507204902 | 54 | 62 | 0.0 | 0.0 | 0.00 | 0.00 | 0.00 | 74 | 1016.8 |
| 20260507204403 | 54 | 62 | 0.0 | 0.0 | 0.00 | 0.00 | 0.00 | 74 | 1016.8 |
| 20260507203902 | 54 | 62 | 0.0 | 0.0 | 0.00 | 0.00 | 0.00 | 74 | 1016.8 |
| 20260507203643 | 54 | 62 | 0.0 | 0.0 | 0.00 | 0.00 | 0.00 | 73 | 1016.8 |
| 20260507202901 | 54 | 62 | 0.0 | 0.0 | 0.00 | 0.00 | 0.00 | 73 | 1016.7 |
| 20260507202419 | 54 | 62 | 0.0 | 0.0 | 0.00 | 0.00 | 0.00 | 73 | 1016.7 |
| 20260507201901 | 54 | 62 | 0.0 | 0.0 | 0.00 | 0.00 | 0.00 | 72 | 1016.7 |
| 20260507201724 | 55 | 62 | 0.0 | 0.0 | 0.00 | 0.00 | 0.00 | 71 | 1016.4 |
| 20260507201717 | 54 | 62 | 0.0 | 0.0 | 0.00 | 0.00 | 0.00 | 71 | 1016.5 |
| 20260507200402 | 55 | 62 | 0.0 | 0.0 | 0.00 | 0.00 | 0.00 | 73 | 1016.4 |
| 20260507195901 | 55 | 62 | 0.0 | 0.0 | 0.00 | 0.00 | 0.00 | 73 | 1016.4 |
| 20260507195402 | 55 | 62 | 0.0 | 0.0 | 0.00 | 0.00 | 0.00 | 73 | 1016.4 |
| 20260507194901 | 55 | 62 | 0.0 | 0.0 | 0.00 | 0.00 | 0.00 | 71 | 1016.3 |
| 20260507194401 | 56 | 62 | 0.0 | 0.0 | 0.00 | 0.00 | 0.00 | 71 | 1016.3 |
| 20260507193901 | 56 | 62 | 0.0 | 0.0 | 0.00 | 0.00 | 0.00 | 70 | 1016.3 |
| 20260507193401 | 56 | 62 | 0.0 | 0.0 | 0.00 | 0.00 | 0.00 | 69 | 1016.3 |
| 20260507192900 | 56 | 62 | 0.0 | 0.0 | 0.00 | 0.00 | 0.00 | 68 | 1016.3 |
| 20260507192714 | 56 | 62 | 0.0 | 0.0 | 0.00 | 0.00 | 0.00 | 68 | 1016.2 |
| 20260507191903 | 56 | 62 | 0.0 | 0.0 | 0.00 | 0.00 | 0.00 | 70 | 1016.3 |
| 20260507191716 | 57 | 62 | 0.0 | 0.0 | 0.00 | 0.00 | 0.00 | 69 | 1016.1 |
| 20260507190901 | 57 | 62 | 0.0 | 0.0 | 0.00 | 0.00 | 0.00 | 69 | 1016.2 |
| 20260507190359 | 57 | 62 | 0.0 | 0.0 | 0.00 | 0.00 | 0.00 | 67 | 1016.1 |
| 20260507185859 | 57 | 62 | 0.0 | 0.0 | 0.00 | 0.00 | 0.00 | 68 | 1016.2 |
| 20260507185359 | 58 | 62 | 0.0 | 0.0 | 0.00 | 0.00 | 0.00 | 68 | 1016.2 |
| 20260507184859 | 58 | 62 | 0.0 | 0.0 | 0.00 | 0.00 | 0.00 | 66 | 1016.2 |
| 20260507184400 | 58 | 62 | 0.0 | 0.0 | 0.00 | 0.00 | 0.00 | 60 | 1016.1 |
| 20260507183859 | 58 | 62 | 0.0 | 0.0 | 0.00 | 0.00 | 0.00 | 58 | 1016.1 |
| 20260507183359 | 58 | 62 | 0.0 | 0.0 | 0.00 | 0.00 | 0.00 | 58 | 1016.0 |
| 20260507182859 | 58 | 62 | 0.0 | 0.0 | 0.00 | 0.00 | 0.00 | 58 | 1016.2 |
| 20260507182358 | 58 | 62 | 0.0 | 0.0 | 0.00 | 0.00 | 0.00 | 58 | 1016.1 |
| 20260507181917 | 58 | 62 | 0.0 | 0.0 | 0.00 | 0.00 | 0.00 | 58 | 1016.1 |
| 20260507181358 | 58 | 62 | 0.0 | 0.0 | 0.00 | 0.00 | 0.00 | 57 | 1016.1 |
| 20260507180859 | 58 | 62 | 0.0 | 0.0 | 0.00 | 0.00 | 0.00 | 58 | 1016.1 |
| 20260507180357 | 58 | 62 | 0.0 | 0.0 | 0.00 | 0.00 | 0.00 | 56 | 1016.0 |
| 20260507175858 | 58 | 62 | 0.0 | 0.0 | 0.00 | 0.00 | 0.00 | 55 | 1016.1 |
| 20260507175358 | 59 | 62 | 0.0 | 0.0 | 0.00 | 0.00 | 0.00 | 56 | 1016.0 |
| 20260507174900 | 59 | 62 | 0.0 | 0.9 | 0.00 | 0.00 | 0.00 | 59 | 1016.1 |
| 20260507174505 | 59 | 63 | 0.9 | 2.6 | 0.00 | 0.00 | 0.00 | 55 | 1016.0 |
| 20260507174500 | 59 | 63 | 0.9 | 0.9 | 0.00 | 0.00 | 0.00 | 54 | 1016.1 |
| 20260507174439 | 59 | 63 | 0.0 | 2.6 | 0.00 | 0.00 | 0.00 | 57 | 1016.1 |
| 20260507173146 | 59 | 63 | 0.0 | 1.7 | 0.00 | 0.00 | 0.00 | 55 | 1016.0 |
| 20260507172358 | 59 | 63 | 0.0 | 1.7 | 0.00 | 0.00 | 0.00 | 54 | 1015.9 |
| 20260507171857 | 59 | 63 | 0.9 | 1.7 | 0.00 | 0.00 | 0.00 | 56 | 1016.1 |
| 20260507171358 | 59 | 61 | 0.0 | 2.6 | 0.00 | 0.00 | 0.00 | 56 | 1016.1 |
| 20260507170857 | 59 | 61 | 1.7 | 2.6 | 0.00 | 0.00 | 0.00 | 54 | 1016.0 |
| 20260507170357 | 59 | 66 | 0.0 | 2.6 | 0.00 | 0.00 | 0.00 | 56 | 1016.0 |
| 20260507170138 | 59 | 66 | 1.7 | 3.5 | 0.00 | 0.00 | 0.00 | 56 | 1016.0 |
| 20260507165358 | 59 | 66 | 1.7 | 3.5 | 0.00 | 0.00 | 0.00 | 55 | 1016.0 |
| 20260507164856 | 59 | 71 | 0.0 | 0.0 | 0.00 | 0.00 | 0.00 | 56 | 1016.1 |
| 20260507164356 | 59 | 71 | 0.0 | 0.0 | 0.00 | 0.00 | 0.00 | 54 | 1016.0 |
| 20260507163856 | 59 | 71 | 0.0 | 2.6 | 0.00 | 0.00 | 0.00 | 53 | 1016.0 |
| 20260507163356 | 60 | 71 | 0.0 | 3.5 | 0.00 | 0.00 | 0.00 | 54 | 1015.9 |
| 20260507162856 | 60 | 71 | 1.7 | 3.5 | 0.00 | 0.00 | 0.00 | 54 | 1016.1 |
| 20260507162648 | 60 | 69 | 0.9 | 3.5 | 0.00 | 0.00 | 0.00 | 54 | 1016.0 |
| 20260507161855 | 60 | 62 | 0.0 | 2.6 | 0.00 | 0.00 | 0.00 | 54 | 1016.0 |
| 20260507161646 | 60 | 61 | 0.0 | 3.5 | 0.00 | 0.00 | 0.00 | 54 | 1016.0 |
| 20260507160855 | 60 | 59 | 0.9 | 4.3 | 0.00 | 0.00 | 0.00 | 54 | 1015.9 |
| 20260507160406 | 60 | 78 | 1.7 | 4.3 | 0.00 | 0.00 | 0.00 | 54 | 1016.1 |
| 20260507155856 | 60 | 97 | 1.7 | 2.6 | 0.00 | 0.00 | 0.00 | 53 | 1016.1 |
| 20260507155355 | 60 | 100 | 0.0 | 1.7 | 0.00 | 0.00 | 0.00 | 52 | 1015.9 |
| 20260507154855 | 60 | 99 | 0.0 | 3.5 | 0.00 | 0.00 | 0.00 | 54 | 1016.0 |
| 20260507154354 | 60 | 99 | 1.7 | 3.5 | 0.00 | 0.00 | 0.00 | 54 | 1015.9 |
| 20260507153858 | 60 | 116 | 1.7 | 2.6 | 0.00 | 0.00 | 0.00 | 54 | 1016.0 |
| 20260507153355 | 60 | 78 | 0.0 | 3.5 | 0.00 | 0.00 | 0.00 | 53 | 1015.9 |
| 20260507152855 | 60 | 72 | 0.0 | 4.3 | 0.00 | 0.00 | 0.00 | 53 | 1015.9 |
| 20260507152354 | 60 | 61 | 1.7 | 4.3 | 0.00 | 0.00 | 0.00 | 53 | 1015.9 |
| 20260507151854 | 60 | 38 | 0.9 | 4.3 | 0.00 | 0.00 | 0.00 | 52 | 1015.9 |
| 20260507151354 | 60 | 80 | 2.6 | 4.3 | 0.00 | 0.00 | 0.00 | 53 | 1015.8 |
| 20260507150853 | 60 | 96 | 2.6 | 4.3 | 0.00 | 0.00 | 0.00 | 52 | 1015.8 |
| 20260507150354 | 60 | 61 | 0.9 | 3.5 | 0.00 | 0.00 | 0.00 | 56 | 1015.8 |
| 20260507145852 | 60 | 317 | 0.0 | 2.6 | 0.00 | 0.00 | 0.00 | 52 | 1015.8 |
| 20260507145408 | 60 | 51 | 0.9 | 3.5 | 0.00 | 0.00 | 0.00 | 53 | 1015.7 |
| 20260507144852 | 60 | 20 | 1.7 | 5.2 | 0.00 | 0.00 | 0.00 | 53 | 1015.7 |
| 20260507144651 | 60 | 44 | 2.6 | 5.2 | 0.00 | 0.00 | 0.00 | 53 | 1015.8 |
| 20260507143853 | 60 | 6 | 0.0 | 2.6 | 0.00 | 0.00 | 0.00 | 52 | 1015.7 |
| 20260507143355 | 60 | 6 | 0.9 | 4.3 | 0.00 | 0.00 | 0.00 | 53 | 1015.7 |
| 20260507142853 | 60 | 10 | 1.7 | 4.3 | 0.00 | 0.00 | 0.00 | 53 | 1015.8 |
| 20260507142354 | 60 | 44 | 0.0 | 3.5 | 0.00 | 0.00 | 0.00 | 51 | 1015.7 |
| 20260507141852 | 60 | 55 | 2.6 | 3.5 | 0.00 | 0.00 | 0.00 | 51 | 1015.8 |
| 20260507141354 | 60 | 72 | 1.7 | 4.3 | 0.00 | 0.00 | 0.00 | 53 | 1015.9 |
| 20260507140854 | 60 | 24 | 1.7 | 4.3 | 0.00 | 0.00 | 0.00 | 53 | 1016.0 |
| 20260507140352 | 60 | 73 | 1.7 | 4.3 | 0.00 | 0.00 | 0.00 | 52 | 1015.9 |
| 20260507135853 | 60 | 89 | 1.7 | 4.3 | 0.00 | 0.00 | 0.00 | 52 | 1015.9 |
| 20260507135354 | 60 | 68 | 0.9 | 4.3 | 0.00 | 0.00 | 0.00 | 52 | 1016.0 |
| 20260507134854 | 60 | 47 | 1.7 | 3.5 | 0.00 | 0.00 | 0.00 | 55 | 1016.1 |
| 20260507134347 | 59 | 41 | 0.0 | 2.6 | 0.00 | 0.00 | 0.00 | 55 | 1016.1 |
| 20260507133848 | 59 | 41 | 1.7 | 4.3 | 0.00 | 0.00 | 0.00 | 54 | 1016.0 |
| 20260507133348 | 59 | 42 | 1.7 | 4.3 | 0.00 | 0.00 | 0.00 | 54 | 1016.0 |
| 20260507132848 | 60 | 45 | 1.7 | 3.5 | 0.00 | 0.00 | 0.00 | 54 | 1016.1 |
| 20260507132349 | 60 | 90 | 0.0 | 2.6 | 0.00 | 0.00 | 0.00 | 52 | 1016.0 |
| 20260507131850 | 59 | 85 | 0.0 | 5.2 | 0.00 | 0.00 | 0.00 | 49 | 1016.0 |
| 20260507131643 | 59 | 59 | 1.7 | 5.2 | 0.00 | 0.00 | 0.00 | 52 | 1016.1 |
| 20260507130849 | 59 | 48 | 1.7 | 5.2 | 0.00 | 0.00 | 0.00 | 54 | 1016.0 |
| 20260507130640 | 59 | 42 | 2.6 | 5.2 | 0.00 | 0.00 | 0.00 | 54 | 1016.0 |
| 20260507125849 | 59 | 44 | 1.7 | 4.3 | 0.00 | 0.00 | 0.00 | 55 | 1016.0 |
| 20260507125348 | 59 | 14 | 1.7 | 3.5 | 0.00 | 0.00 | 0.00 | 54 | 1016.1 |
| 20260507124847 | 60 | 61 | 1.7 | 5.2 | 0.00 | 0.00 | 0.00 | 52 | 1016.0 |
| 20260507124347 | 59 | 59 | 3.5 | 5.2 | 0.00 | 0.00 | 0.00 | 56 | 1016.0 |
| 20260507123847 | 59 | 89 | 0.9 | 6.1 | 0.00 | 0.00 | 0.00 | 53 | 1015.9 |
| 20260507123346 | 59 | 61 | 2.6 | 6.1 | 0.00 | 0.00 | 0.00 | 53 | 1015.9 |
| 20260507122846 | 59 | 96 | 5.2 | 6.1 | 0.00 | 0.00 | 0.00 | 54 | 1015.9 |
| 20260507122345 | 59 | 94 | 1.7 | 7.8 | 0.00 | 0.00 | 0.00 | 54 | 1015.9 |
| 20260507121846 | 59 | 51 | 3.5 | 7.8 | 0.00 | 0.00 | 0.00 | 55 | 1015.8 |
| 20260507121347 | 59 | 86 | 1.7 | 6.1 | 0.00 | 0.00 | 0.00 | 55 | 1015.9 |
| 20260507120844 | 59 | 89 | 3.5 | 6.1 | 0.00 | 0.00 | 0.00 | 56 | 1015.7 |
| 20260507120344 | 59 | 48 | 2.6 | 6.1 | 0.00 | 0.00 | 0.00 | 55 | 1015.9 |
| 20260507115843 | 59 | 6 | 1.7 | 4.3 | 0.00 | 0.00 | 0.00 | 56 | 1015.7 |
| 20260507115341 | 59 | 30 | 0.0 | 3.5 | 0.00 | 0.00 | 0.00 | 55 | 1015.8 |
| 20260507114843 | 59 | 30 | 1.7 | 4.3 | 0.00 | 0.00 | 0.00 | 53 | 1015.8 |
| 20260507114342 | 59 | 11 | 1.7 | 4.3 | 0.00 | 0.00 | 0.00 | 55 | 1015.8 |
| 20260507113842 | 59 | 14 | 0.0 | 4.3 | 0.00 | 0.00 | 0.00 | 55 | 1015.8 |
| 20260507113342 | 59 | 23 | 1.7 | 4.3 | 0.00 | 0.00 | 0.00 | 55 | 1015.8 |
| 20260507112842 | 59 | 6 | 1.7 | 4.3 | 0.00 | 0.01 | 0.00 | 56 | 1015.7 |
| 20260507112340 | 59 | 14 | 2.6 | 5.2 | 0.00 | 0.01 | 0.00 | 56 | 1015.8 |
| 20260507112129 | 59 | 336 | 3.5 | 6.1 | 0.00 | 0.01 | 0.00 | 55 | 1015.8 |
| 20260507111342 | 60 | 319 | 4.3 | 6.1 | 0.00 | 0.01 | 0.00 | 58 | 1015.8 |
| 20260507110841 | 60 | 0 | 2.6 | 5.2 | 0.00 | 0.01 | 0.00 | 54 | 1015.8 |
| 20260507110342 | 60 | 21 | 1.7 | 4.3 | 0.00 | 0.01 | 0.00 | 53 | 1015.9 |
| 20260507105839 | 60 | 55 | 2.6 | 6.1 | 0.00 | 0.01 | 0.00 | 58 | 1015.9 |
| 20260507105342 | 60 | 21 | 3.5 | 6.1 | 0.00 | 0.01 | 0.00 | 54 | 1015.9 |
| 20260507104842 | 60 | 336 | 3.5 | 4.3 | 0.00 | 0.01 | 0.00 | 56 | 1016.0 |
| 20260507104340 | 61 | 305 | 1.7 | 6.1 | 0.00 | 0.01 | 0.00 | 53 | 1016.0 |
| 20260507103837 | 60 | 144 | 1.7 | 8.7 | 0.00 | 0.01 | 0.00 | 52 | 1015.8 |
| 20260507103336 | 61 | 117 | 4.3 | 8.7 | 0.00 | 0.01 | 0.00 | 52 | 1016.0 |
| 20260507102837 | 61 | 76 | 3.5 | 7.8 | 0.00 | 0.01 | 0.00 | 56 | 1015.8 |
| 20260507102334 | 61 | 99 | 1.7 | 5.2 | 0.00 | 0.01 | 0.00 | 56 | 1016.0 |
| 20260507101837 | 61 | 28 | 3.5 | 7.8 | 0.00 | 0.01 | 0.00 | 59 | 1015.9 |
| 20260507101333 | 60 | 44 | 3.5 | 7.8 | 0.00 | 0.01 | 0.00 | 61 | 1016.0 |
| 20260507101148 | 60 | 37 | 2.6 | 5.2 | 0.00 | 0.01 | 0.00 | 62 | 1015.9 |
| 20260507101142 | 60 | 38 | 0.9 | 5.2 | 0.00 | 0.01 | 0.00 | 60 | 1015.9 |
| 20260507095831 | 59 | 82 | 1.7 | 6.1 | 0.00 | 0.01 | 0.00 | 60 | 1015.9 |
| 20260507095616 | 59 | 99 | 3.5 | 6.1 | 0.00 | 0.01 | 0.00 | 63 | 1016.0 |
| 20260507094832 | 59 | 21 | 3.5 | 6.1 | 0.00 | 0.01 | 0.00 | 63 | 1015.6 |
| 20260507094332 | 59 | 20 | 0.9 | 6.1 | 0.00 | 0.01 | 0.00 | 63 | 1015.5 |
| 20260507093831 | 59 | 65 | 3.5 | 6.1 | 0.00 | 0.01 | 0.00 | 63 | 1015.4 |
| 20260507093331 | 59 | 42 | 3.5 | 6.1 | 0.00 | 0.01 | 0.00 | 64 | 1015.3 |
| 20260507092832 | 58 | 72 | 4.3 | 6.1 | 0.00 | 0.01 | 0.00 | 65 | 1015.2 |
| 20260507092330 | 58 | 54 | 2.6 | 4.3 | 0.00 | 0.01 | 0.00 | 64 | 1015.1 |
| 20260507091829 | 58 | 24 | 0.9 | 5.2 | 0.00 | 0.01 | 0.00 | 65 | 1015.0 |
| 20260507091330 | 58 | 11 | 3.5 | 5.2 | 0.00 | 0.01 | 0.00 | 68 | 1014.9 |
| 20260507091114 | 58 | 116 | 3.5 | 5.2 | 0.00 | 0.01 | 0.00 | 67 | 1014.8 |
| 20260507090332 | 56 | 38 | 2.6 | 6.1 | 0.00 | 0.01 | 0.00 | 67 | 1014.5 |
| 20260507090115 | 56 | 51 | 3.5 | 6.1 | 0.00 | 0.01 | 0.00 | 68 | 1014.3 |
| 20260507085332 | 56 | 10 | 2.6 | 6.1 | 0.00 | 0.01 | 0.00 | 68 | 1014.0 |
| 20260507084829 | 56 | 1 | 3.5 | 5.2 | 0.00 | 0.01 | 0.00 | 69 | 1014.0 |
| 20260507084330 | 56 | 51 | 2.6 | 5.2 | 0.00 | 0.01 | 0.00 | 69 | 1013.8 |
| 20260507083830 | 56 | 27 | 1.7 | 5.2 | 0.00 | 0.01 | 0.00 | 67 | 1013.7 |
| 20260507083330 | 55 | 25 | 2.6 | 4.3 | 0.00 | 0.01 | 0.00 | 69 | 1013.3 |
| 20260507082830 | 55 | 32 | 1.7 | 6.1 | 0.00 | 0.01 | 0.00 | 72 | 1012.8 |
| 20260507082338 | 55 | 28 | 3.5 | 6.1 | 0.00 | 0.01 | 0.00 | 71 | 1012.3 |
| 20260507081830 | 54 | 14 | 0.0 | 5.2 | 0.00 | 0.01 | 0.00 | 73 | 1012.4 |
| 20260507081403 | 53 | 3 | 0.0 | 3.5 | 0.00 | 0.01 | 0.00 | 74 | 1015.4 |
| 20260507081352 | 53 | 0 | 1.7 | 5.2 | 0.00 | 0.01 | 0.00 | 73 | 1015.3 |
| 20260507080329 | 53 | 45 | 1.7 | 5.2 | 0.00 | 0.01 | 0.00 | 74 | 1015.4 |
| 20260507075829 | 53 | 16 | 3.5 | 5.2 | 0.00 | 0.01 | 0.00 | 73 | 1015.3 |
| 20260507075616 | 52 | 20 | 1.7 | 4.3 | 0.00 | 0.01 | 0.00 | 76 | 1015.2 |
| 20260507074830 | 51 | 25 | 0.9 | 3.5 | 0.00 | 0.01 | 0.00 | 76 | 1015.3 |
| 20260507074622 | 51 | 6 | 1.7 | 3.5 | 0.00 | 0.01 | 0.00 | 77 | 1015.3 |
| 20260507073837 | 50 | 14 | 2.6 | 3.5 | 0.00 | 0.01 | 0.00 | 76 | 1015.3 |
| 20260507073330 | 50 | 8 | 1.7 | 4.3 | 0.00 | 0.01 | 0.00 | 78 | 1015.4 |
| 20260507072846 | 50 | 42 | 2.6 | 4.3 | 0.00 | 0.01 | 0.00 | 78 | 1015.4 |
| 20260507072331 | 50 | 52 | 2.6 | 4.3 | 0.00 | 0.01 | 0.00 | 77 | 1015.2 |
| 20260507071831 | 49 | 11 | 2.6 | 5.2 | 0.00 | 0.01 | 0.00 | 78 | 1015.3 |
| 20260507071330 | 49 | 11 | 2.6 | 5.2 | 0.00 | 0.01 | 0.00 | 79 | 1015.3 |
| 20260507070832 | 49 | 8 | 1.7 | 4.3 | 0.00 | 0.01 | 0.00 | 79 | 1015.2 |
| 20260507070331 | 49 | 16 | 1.7 | 4.3 | 0.00 | 0.01 | 0.00 | 79 | 1015.1 |
| 20260507065831 | 49 | 21 | 1.7 | 4.3 | 0.00 | 0.01 | 0.00 | 79 | 1015.1 |
| 20260507065627 | 49 | 10 | 2.6 | 4.3 | 0.00 | 0.01 | 0.00 | 80 | 1015.2 |